Location: Dal�� Lhota
(48.7500°N, 14.0167°E)
Time: 19:59:35
(UTC+00:00)

Transit 2A - Pass Details

Date: 28 July 2021
Orbit: 594 x 964 km, 66.7° (Epoch: 27 September)

Event Time Altitude Azimuth Distance (km) Brightness Sun altitude
Rises 05:47:23 0° 189° (S) 2,824 8.8 20.1°
Reaches altitude 10° 05:49:42 10° 180° (S) 1,941 8.1 20.5°
Maximum altitude 05:53:38 35° 115° (ESE) 1,010 7.9 21.1°
Drops below altitude 10° 05:57:50 10° 50° (NE) 2,067 9.3 21.8°
Sets 06:00:22 0° 41° (NE) 3,037 9.8 22.2°
